[[{"header":{"parameterUnit":"m.s-1","parameterCategory":1,"la1":30.2991,"la2":30.254,"lo1":-89.0895,"lo2":-89.0444,"dy":0.0017,"dx":0.0017,"nx":28,"ny":28,"refTime":"2024-05-18T09:00:00:Z","depth":0,"parameterNumber":2,"parameterNumberName":"U-component_of_WINDS"},"data":[0,0,0,0,0,0,0,0,0,0,0,0,0,0,0,0,0,0,0,0,0,0,0,0,0,0,0,0,0,0,0,0,0,0,0,0,0,0,0,0,0,0,0,0,0,0,0,0,0,0,0,0,0,0,0,0,0,0,2.2168,2.2169,0,2.2216,2.2217,2.2217,2.2196,2.2195,2.2193,2.2192,2.2244,2.2246,2.2249,0,0,0,0,0,0,0,0,0,0,0,0,0,2.2062,2.2064,2.2168,2.2169,2.2169,2.2216,2.2217,2.2218,2.2196,2.2194,2.2193,2.2192,2.2243,2.2246,2.2249,0,0,0,0,0,0,0,0,0,0,0,0,0,2.2109,2.2064,2.2168,2.2164,2.2164,2.2216,2.2217,2.2218,2.2196,2.2194,2.2193,2.2191,2.2242,2.2246,2.225,2.2309,0,0,2.2261,2.2263,0,0,0,0,0,0,0,0,2.2106,2.2113,2.2164,2.2164,2.2165,2.2198,2.2198,2.2248,2.2197,2.2184,2.2192,2.219,2.223,2.2235,2.2248,2.2311,2.2313,2.2261,2.2264,2.2265,2.2266,0,0,0,0,0,0,0,2.2103,2.211,2.2187,2.2165,2.2165,2.2161,2.2166,2.2208,2.2217,2.2185,2.2184,2.219,2.223,2.2244,2.2249,2.2314,2.2261,2.2265,2.2267,2.2268,2.2431,2.2433,0,0,0,0,0,0,2.2099,2.2108,2.2186,2.2189,2.213,2.2165,2.217,2.2189,2.2216,2.2219,2.2191,2.2188,2.2239,2.2245,2.2251,2.2323,2.2265,2.2269,2.2271,2.2429,2.2432,2.2434,0,0,0,0,0,0,2.2097,2.2106,2.2184,2.2148,2.2157,2.2168,2.219,2.2191,2.2205,2.2221,2.2223,2.2204,2.2238,2.2246,2.2295,2.2325,2.227,2.2274,2.2427,2.243,2.2433,2.2468,0,0,0,0,0,0,2.2094,2.2106,2.2127,2.2148,2.2159,2.2226,2.2192,2.2193,2.2212,2.2208,2.2233,2.2235,2.2237,2.229,2.2299,2.2329,2.2277,2.2424,2.2428,2.2432,2.2464,2.2472,2.2478,0,0,0,0,0,2.209,2.2135,2.2128,2.2137,2.2186,2.2227,2.2234,2.2234,2.2214,2.2236,2.2247,2.2235,2.232,2.2295,2.2305,2.2337,2.2422,2.2427,2.2432,2.2461,2.247,2.2478,0,0,0,0,0,0,2.2116,2.2137,2.213,2.2182,2.2203,2.2223,2.2251,2.2243,2.2271,2.2267,2.2267,2.2273,2.2324,2.2336,2.2307,2.2397,2.2369,2.2376,2.2387,2.2396,2.2403,2.2399,2.228,0,0,0,0,0,2.2128,2.2158,2.2176,2.222,2.2231,2.224,2.2258,2.2256,2.2278,2.2287,2.2301,2.2323,2.2356,2.2377,2.2407,2.2466,2.2472,2.2494,2.2501,2.2506,2.2512,2.2547,2.2557,2.245,2.245,2.2449,0,0,2.2152,2.2168,2.2187,2.2226,2.2242,2.2275,2.2247,2.2283,2.2308,2.2293,2.234,2.2352,2.2377,2.2432,2.2457,2.2443,2.2544,2.2512,2.2517,2.252,2.2553,2.2563,2.2572,2.2453,2.2452,2.2452,0,0,2.2214,2.2228,2.2268,2.2285,2.2309,2.2315,2.2325,2.2347,2.2354,2.2402,2.2392,2.2423,2.2478,2.2497,2.2514,2.2587,2.2578,2.2597,2.2634,2.2668,2.2676,2.2684,2.2711,2.272,2.2603,2.2603,2.2603,0,2.2241,2.2289,2.2289,2.2326,2.2345,2.2333,2.2374,2.2391,2.2425,2.2439,2.2423,2.2494,2.251,2.257,2.2588,2.2602,2.2615,2.2594,2.2675,2.2682,2.2689,2.2715,2.2725,2.2606,2.2605,2.2605,2.2605,0,2.2323,2.2357,2.2386,2.2419,2.2441,2.248,2.2488,2.251,2.2508,2.2517,2.2567,2.2587,2.2622,2.2637,2.2635,2.2698,2.2689,2.2674,2.2645,2.2702,2.2726,2.2736,2.2609,2.2608,2.2607,2.2607,0,0,2.2398,2.2433,2.2444,2.246,2.2488,2.2515,2.2555,2.2589,2.261,2.2635,2.2669,2.2718,2.2705,2.2725,2.2725,2.2755,2.2814,2.2737,2.2738,2.2751,2.2886,2.2897,2.2908,2.2808,2.281,2.2811,2.2885,0,2.2462,2.2531,2.2534,2.2597,2.263,2.2621,2.2657,2.2679,2.2689,2.2719,2.2731,2.2766,2.2746,2.2758,2.2787,2.28,2.2841,2.2795,2.2841,2.2843,2.2835,2.2921,2.2931,2.2999,2.2894,2.2896,2.2897,0,2.2545,2.2573,2.2639,2.2665,2.2679,2.2711,2.2744,2.2773,2.2799,2.2805,2.2828,2.2825,2.2869,2.284,2.2901,2.287,2.289,2.2899,2.2902,2.2906,2.2873,2.2927,2.302,2.3031,2.2912,2.291,2.2909,0,2.2594,2.2649,2.2696,2.271,2.2741,2.2764,2.2778,2.2803,2.2824,2.2854,2.2868,2.2903,2.2922,2.295,2.2958,2.2936,2.302,2.2991,2.3026,2.3026,2.3043,2.3042,2.3141,2.3057,2.3056,2.3056,2.3056,0,2.2665,2.2706,2.2719,2.2748,2.2795,2.28,2.2847,2.286,2.2882,2.2915,2.2911,2.2942,2.2951,2.2985,2.2991,2.3042,2.305,2.3057,2.3058,2.3057,2.3056,2.3069,2.3065,2.3059,2.3058,2.3058,2.3057,0,2.2727,2.2737,2.2789,2.2815,2.2823,2.2856,2.288,2.2909,2.292,2.2962,2.2972,2.2989,2.3029,2.304,2.3087,2.3092,2.3152,2.3149,2.3142,2.3142,2.3177,2.3174,2.3288,2.3304,2.3209,2.321,2.3211,0,2.2771,2.2803,2.2833,2.2855,2.287,2.2905,2.2927,2.2934,2.2958,2.2992,2.3018,2.3057,2.3088,2.3153,2.3171,2.3208,2.3206,2.3244,2.3211,2.321,2.3207,2.3205,2.3209,2.3249,2.325,2.3251,2.3252,0,2.2848,2.2852,2.2884,2.2919,2.2945,2.2973,2.2999,2.3018,2.3029,2.3057,2.3097,2.3122,2.3171,2.3211,2.325,2.3266,2.3262,2.3262,2.3272,2.3271,2.3266,2.327,2.3159,2.3259,2.3258,2.3258,2.3257,2.3257,2.2903,2.2931,2.2958,2.2994,2.3015,2.3041,2.307,2.3085,2.3119,2.3159,2.3162,2.3207,2.3236,2.3287,2.3306,2.3342,2.3331,2.3346,2.335,2.3353,2.3356,2.3261,2.3349,2.3349,2.3349,2.3349,2.3349,0,2.298,2.2997,2.3031,2.3068,2.3098,2.3091,2.3121,2.3147,2.3186,2.3213,2.3245,2.3293,2.3332,2.3354,2.3394,2.3419,2.3418,2.343,2.3427,2.3432,2.3364,2.3351,2.343,2.343,2.343,2.343,2.343,2.343,2.3023,2.3072,2.308,2.314,2.3158,2.3201,2.3219,2.3244,2.3265,2.3319,2.3352,2.3366,2.3392,2.3434,2.3471,2.3477,2.3492,2.3505,2.3509,2.3445,2.3436,2.3428,2.3416,2.3508,2.3508,2.3574,2.3575,2.3575]},{"header":{"parameterUnit":"m.s-1","parameterCategory":1,"la1":30.2991,"la2":30.254,"lo1":-89.0895,"lo2":-89.0444,"dy":0.0017,"dx":0.0017,"nx":28,"ny":28,"refTime":"2024-05-18T09:00:00:Z","depth":0,"parameterNumber":3,"parameterNumberName":"V-component_of_WINDS"},"data":[0,0,0,0,0,0,0,0,0,0,0,0,0,0,0,0,0,0,0,0,0,0,0,0,0,0,0,0,0,0,0,0,0,0,0,0,0,0,0,0,0,0,0,0,0,0,0,0,0,0,0,0,0,0,0,0,0,0,-2.0356,-2.0357,0,-2.0431,-2.0431,-2.0432,-2.0463,-2.0463,-2.0463,-2.0463,-2.0541,-2.0543,-2.0545,0,0,0,0,0,0,0,0,0,0,0,0,0,-2.0243,-2.0245,-2.0356,-2.0357,-2.0358,-2.043,-2.0431,-2.0432,-2.0463,-2.0463,-2.0463,-2.0463,-2.054,-2.0542,-2.0545,0,0,0,0,0,0,0,0,0,0,0,0,0,-2.0303,-2.0246,-2.0356,-2.0382,-2.0385,-2.043,-2.0431,-2.0433,-2.0463,-2.0463,-2.0463,-2.0463,-2.0539,-2.0542,-2.0545,-2.057,0,0,-2.0556,-2.0557,0,0,0,0,0,0,0,0,-2.0299,-2.0307,-2.0377,-2.038,-2.0384,-2.0437,-2.042,-2.0479,-2.0464,-2.0434,-2.0463,-2.0463,-2.0506,-2.0512,-2.0527,-2.0574,-2.0577,-2.0556,-2.0558,-2.0559,-2.056,0,0,0,0,0,0,0,-2.0295,-2.0304,-2.0385,-2.0378,-2.0382,-2.0391,-2.0399,-2.0432,-2.047,-2.0436,-2.0439,-2.0447,-2.0508,-2.0524,-2.0529,-2.0578,-2.0556,-2.0559,-2.0561,-2.0562,-2.0653,-2.0654,0,0,0,0,0,0,-2.0286,-2.03,-2.0383,-2.0388,-2.034,-2.0393,-2.0402,-2.042,-2.047,-2.0478,-2.0447,-2.0448,-2.0518,-2.0525,-2.0532,-2.0566,-2.0559,-2.0562,-2.0564,-2.0653,-2.0653,-2.0654,0,0,0,0,0,0,-2.0284,-2.0293,-2.038,-2.0345,-2.0356,-2.0395,-2.0415,-2.0422,-2.0437,-2.0478,-2.0486,-2.0456,-2.0518,-2.0527,-2.0561,-2.0569,-2.0564,-2.0567,-2.0652,-2.0653,-2.0653,-2.0633,0,0,0,0,0,0,-2.028,-2.0292,-2.0301,-2.0345,-2.0358,-2.0407,-2.0416,-2.0424,-2.0443,-2.0445,-2.0488,-2.0495,-2.0519,-2.0556,-2.0564,-2.0574,-2.0569,-2.0652,-2.0652,-2.0653,-2.0633,-2.0633,-2.0633,0,0,0,0,0,-2.0276,-2.0292,-2.0301,-2.0311,-2.037,-2.0407,-2.0415,-2.0441,-2.0443,-2.0453,-2.048,-2.0494,-2.0567,-2.0559,-2.0569,-2.0579,-2.0651,-2.0652,-2.0653,-2.0634,-2.0633,-2.0633,0,0,0,0,0,0,-2.0248,-2.0298,-2.0309,-2.0339,-2.0369,-2.0412,-2.0425,-2.044,-2.047,-2.047,-2.0503,-2.0512,-2.0544,-2.0565,-2.0556,-2.0608,-2.061,-2.0613,-2.0592,-2.0592,-2.0592,-2.0586,-2.0572,0,0,0,0,0,-2.0245,-2.0271,-2.0314,-2.0336,-2.0351,-2.0386,-2.0403,-2.0421,-2.0453,-2.0466,-2.0495,-2.0526,-2.0557,-2.0576,-2.0606,-2.0637,-2.0648,-2.0649,-2.0649,-2.0649,-2.0651,-2.0672,-2.0673,-2.0657,-2.0657,-2.0657,0,0,-2.024,-2.027,-2.0284,-2.0331,-2.0356,-2.0383,-2.0396,-2.0423,-2.0444,-2.047,-2.0504,-2.0527,-2.0564,-2.0598,-2.0614,-2.0616,-2.0658,-2.065,-2.0649,-2.0652,-2.0673,-2.0674,-2.0675,-2.0658,-2.0657,-2.0657,0,0,-2.0244,-2.0269,-2.0291,-2.0317,-2.0355,-2.0379,-2.0384,-2.0427,-2.0443,-2.0478,-2.0499,-2.0525,-2.0576,-2.0602,-2.0622,-2.064,-2.0654,-2.0649,-2.0648,-2.0667,-2.0669,-2.067,-2.0677,-2.068,-2.0651,-2.0651,-2.0651,0,-2.0232,-2.0272,-2.0301,-2.0328,-2.0349,-2.0375,-2.0399,-2.0423,-2.0469,-2.0483,-2.0486,-2.0552,-2.0579,-2.062,-2.0625,-2.064,-2.0648,-2.0644,-2.0666,-2.0668,-2.0669,-2.0677,-2.068,-2.065,-2.065,-2.065,-2.065,0,-2.0257,-2.0285,-2.0299,-2.0344,-2.0366,-2.0392,-2.0426,-2.0446,-2.0463,-2.0487,-2.0523,-2.0557,-2.0595,-2.0607,-2.0623,-2.0651,-2.0652,-2.066,-2.0663,-2.0669,-2.0677,-2.068,-2.0649,-2.0649,-2.065,-2.065,0,0,-2.0242,-2.0305,-2.031,-2.0331,-2.0377,-2.04,-2.0428,-2.0466,-2.0483,-2.0515,-2.054,-2.0584,-2.0593,-2.0615,-2.0636,-2.0653,-2.0667,-2.0659,-2.0661,-2.066,-2.0702,-2.0696,-2.0698,-2.0677,-2.0678,-2.0679,-2.0699,0,-2.0253,-2.0303,-2.0331,-2.037,-2.0398,-2.0425,-2.0449,-2.0481,-2.0505,-2.0533,-2.056,-2.0591,-2.0599,-2.0614,-2.0632,-2.0661,-2.0676,-2.066,-2.0702,-2.0703,-2.0692,-2.0702,-2.0695,-2.0713,-2.0702,-2.0703,-2.0703,0,-2.0271,-2.0303,-2.0345,-2.039,-2.0403,-2.0424,-2.0463,-2.0489,-2.0526,-2.0543,-2.057,-2.0591,-2.0623,-2.0625,-2.0671,-2.066,-2.0679,-2.0696,-2.0698,-2.0702,-2.0703,-2.0708,-2.0719,-2.0721,-2.0708,-2.0708,-2.0707,0,-2.0257,-2.0311,-2.0344,-2.0362,-2.0415,-2.043,-2.0453,-2.049,-2.0512,-2.0546,-2.0561,-2.0599,-2.0619,-2.0648,-2.068,-2.0678,-2.0723,-2.0727,-2.0739,-2.0738,-2.0746,-2.0745,-2.0761,-2.0759,-2.0759,-2.0759,-2.0758,0,-2.0266,-2.029,-2.0339,-2.0359,-2.0388,-2.0422,-2.045,-2.0476,-2.0509,-2.0536,-2.0562,-2.0586,-2.0626,-2.0656,-2.0681,-2.0716,-2.0725,-2.0741,-2.0747,-2.0738,-2.0736,-2.0751,-2.0751,-2.0759,-2.0759,-2.0759,-2.0759,0,-2.0255,-2.0288,-2.0326,-2.0374,-2.0387,-2.0407,-2.0449,-2.047,-2.0497,-2.053,-2.054,-2.0582,-2.0619,-2.0653,-2.0702,-2.072,-2.0756,-2.0763,-2.0743,-2.0746,-2.0756,-2.0755,-2.0782,-2.0787,-2.0781,-2.0781,-2.0781,0,-2.0258,-2.0278,-2.0329,-2.0349,-2.0371,-2.0403,-2.0426,-2.0461,-2.0484,-2.053,-2.0546,-2.0585,-2.0618,-2.0677,-2.0712,-2.0751,-2.076,-2.0767,-2.0766,-2.0758,-2.0761,-2.076,-2.0763,-2.0766,-2.0766,-2.0766,-2.0766,0,-2.026,-2.0277,-2.0308,-2.0347,-2.0374,-2.0406,-2.0439,-2.0454,-2.0495,-2.052,-2.0559,-2.0585,-2.0636,-2.0675,-2.0718,-2.0744,-2.0762,-2.0766,-2.0771,-2.0762,-2.075,-2.0758,-2.0742,-2.0765,-2.0765,-2.0765,-2.0765,-2.0765,-2.0257,-2.0277,-2.0317,-2.0352,-2.0381,-2.0412,-2.0435,-2.0465,-2.0498,-2.0542,-2.0562,-2.0601,-2.0641,-2.0701,-2.0727,-2.0759,-2.0763,-2.077,-2.0771,-2.0773,-2.0771,-2.0745,-2.0767,-2.0767,-2.0767,-2.0767,-2.0767,0,-2.0261,-2.0289,-2.0321,-2.0367,-2.0396,-2.0412,-2.045,-2.0473,-2.0507,-2.0543,-2.0576,-2.0621,-2.066,-2.07,-2.0741,-2.076,-2.077,-2.077,-2.0769,-2.0775,-2.0765,-2.0757,-2.0761,-2.0761,-2.0761,-2.0761,-2.0761,-2.0761,-2.0267,-2.0302,-2.0323,-2.0374,-2.0402,-2.0441,-2.0462,-2.0491,-2.052,-2.057,-2.0602,-2.0628,-2.0666,-2.0711,-2.0749,-2.0759,-2.0774,-2.0772,-2.0785,-2.0775,-2.0775,-2.0775,-2.0768,-2.0774,-2.0774,-2.0792,-2.0792,-2.0792]}]]